Weather History for Triuchirapalli, India

Change the Weather History Date:

Tuesday, August 13, 2013

  Actual Average Record
Temperature  
Mean Temperature 86 °F -  
Max Temperature 95 °F 92 °F 102 °F (1998)
Min Temperature 78 °F 79 °F 77 °F (2003)
Cooling Degree Days 22    
Growing Degree Days 36 (Base 50)    
Moisture  
Dew Point 70 °F    
Average Humidity 60    
Maximum Humidity 89    
Minimum Humidity 30    
Precipitation  
Precipitation 0.00 in - - ()
Sea Level Pressure  
Sea Level Pressure 29.68 in    
Wind  
Wind Speed 7 mph ()    
Max Wind Speed 16 mph    
Max Gust Speed 25 mph    
Visibility 3.5 miles    
Events      
Averages and records for this station are not official NWS values.
T = Trace of Precipitation, MM = Missing Value Source: Averaged Metar Reports

Daily Weather History Graph

Daily Weather History Graph

Search for Another Location

Airport:

Trip Planner

Search our weather history database for the weather conditions in past years. The results will help you decide how hot, cold, wet, or windy it might be!

Date:

Astronomy

Aug. 13, 2013 Rise Set
Actual Time 6:05 AM IST 6:34 PM IST
Civil Twilight 5:43 AM IST 6:56 PM IST
Nautical Twilight 5:17 AM IST 7:22 PM IST
Astronomical Twilight 4:52 AM IST 7:47 PM IST
Moon 11:10 AM IST (8/13) 11:12 PM IST (8/13)
Length of Visible Light 13h 13m
Length of Day
12h 29m
Waxing Crescent, 37% of the Moon is Illuminated
Aug 13
Waxing Crescent
Aug 14
First Quarter
Aug 21
Full
Aug 28
Last Quarter
Sep 5
New

Hourly Weather History & Observations

Time (IST) Temp. Heat Index Dew Point Humidity Pressure Visibility Wind Dir Wind Speed Gust Speed Precip Events Conditions
12:10 AM 80.6 °F 85.4 °F 73.4 °F 79% 29.71 in 3.1 mi WSW 4.6 mph - N/A   Haze
12:40 AM 80.6 °F 85.4 °F 73.4 °F 79% 29.71 in 3.1 mi Calm Calm - N/A   Haze
1:10 AM 80.6 °F 85.4 °F 73.4 °F 79% 29.71 in 3.1 mi Calm Calm - N/A   Haze
1:40 AM 78.8 °F - 75.2 °F 89% 29.71 in 3.1 mi West 6.9 mph - N/A   Haze
2:10 AM 78.8 °F - 75.2 °F 89% 29.68 in 3.1 mi West 4.6 mph - N/A   Haze
2:40 AM 78.8 °F - 73.4 °F 83% 29.68 in 3.1 mi West 5.8 mph - N/A   Haze
3:10 AM 78.8 °F - 73.4 °F 83% 29.68 in 3.1 mi West 5.8 mph - N/A   Haze
3:40 AM 78.8 °F - 73.4 °F 83% 29.68 in 3.1 mi West 5.8 mph - N/A   Haze
4:10 AM 78.8 °F - 73.4 °F 83% 29.68 in 3.1 mi West 9.2 mph - N/A   Haze
4:40 AM 78.8 °F - 73.4 °F 83% 29.68 in 3.1 mi West 5.8 mph - N/A   Haze
5:10 AM 78.8 °F - 73.4 °F 83% 29.68 in 3.1 mi West 5.8 mph - N/A   Haze
5:40 AM 78.8 °F - 69.8 °F 74% 29.71 in 3.1 mi WNW 6.9 mph - N/A   Haze
6:10 AM 78.8 °F - 69.8 °F 74% 29.71 in 3.1 mi WNW 9.2 mph - N/A   Haze
6:40 AM 78.8 °F - 71.6 °F 78% 29.71 in 3.1 mi West 4.6 mph - N/A   Haze
7:10 AM 80.6 °F 84.6 °F 71.6 °F 74% 29.71 in 3.1 mi WNW 11.5 mph - N/A   Haze
7:40 AM 80.6 °F 84.6 °F 71.6 °F 74% 29.74 in 3.1 mi West 6.9 mph - N/A   Haze
8:10 AM 80.6 °F 84.6 °F 71.6 °F 74% 29.74 in 3.1 mi West 9.2 mph - N/A   Haze
8:30 AM 82 °F - 70 °F 60% 29.74 in 2 mi West 10.4 mph - -   Haze
8:40 AM 82.4 °F 87.2 °F 71.6 °F 70% 29.74 in 3.1 mi WNW 11.5 mph - N/A   Haze
9:10 AM 84.2 °F 89.6 °F 71.6 °F 66% 29.74 in 3.1 mi WNW 15.0 mph - N/A   Haze
9:40 AM 86.0 °F 91.8 °F 71.6 °F 62% 29.74 in 3.1 mi WNW 16.1 mph - N/A   Haze
10:10 AM 87.8 °F 93.8 °F 71.6 °F 58% 29.74 in 3.7 mi WNW 12.7 mph - N/A   Scattered Clouds
10:40 AM 89.6 °F 96.2 °F 71.6 °F 55% 29.74 in 3.7 mi WNW 11.5 mph 23.0 mph N/A   Scattered Clouds
11:10 AM 91.4 °F 96.8 °F 69.8 °F 49% 29.71 in 3.7 mi WNW 11.5 mph 23.0 mph N/A   Scattered Clouds
11:40 AM 91.4 °F 96.8 °F 69.8 °F 49% 29.71 in 3.7 mi WNW 15.0 mph - N/A   Scattered Clouds
12:10 PM 91.4 °F 95.4 °F 68.0 °F 46% 29.68 in 3.7 mi West 13.8 mph 25.3 mph N/A   Mostly Cloudy
12:40 PM 91.4 °F 95.4 °F 68.0 °F 46% 29.68 in 3.7 mi WNW 12.7 mph 24.2 mph N/A   Mostly Cloudy
1:10 PM 91.4 °F 95.4 °F 68.0 °F 46% 29.68 in 3.7 mi WNW 11.5 mph 23.0 mph N/A   Mostly Cloudy
1:40 PM 93.2 °F 97.7 °F 68.0 °F 44% 29.65 in 3.7 mi WNW 15.0 mph - N/A   Mostly Cloudy
2:10 PM 95.0 °F 99.5 °F 68.0 °F 41% 29.65 in 5.0 mi West 10.4 mph 21.9 mph N/A   Mostly Cloudy
2:30 PM 94 °F - 67 °F 31% 29.63 in 2 mi WNW 9.2 mph - -   Haze
2:40 PM 95.0 °F 99.5 °F 68.0 °F 41% 29.62 in 5.0 mi West 11.5 mph - N/A   Mostly Cloudy
3:10 PM 95.0 °F 99.5 °F 68.0 °F 41% 29.62 in 5.0 mi NW 9.2 mph - N/A   Mostly Cloudy
3:40 PM 95.0 °F 99.5 °F 68.0 °F 41% 29.62 in 5.0 mi WNW 8.1 mph - N/A   Mostly Cloudy
4:10 PM 95.0 °F 99.5 °F 68.0 °F 41% 29.59 in 5.0 mi NW 8.1 mph - N/A   Mostly Cloudy
4:40 PM 93.2 °F 98.8 °F 69.8 °F 46% 29.59 in 5.0 mi NW 8.1 mph - N/A   Mostly Cloudy
5:10 PM 93.2 °F 98.8 °F 69.8 °F 46% 29.59 in 5.0 mi WNW 9.2 mph - N/A   Mostly Cloudy
5:30 PM 94 °F - 66 °F 30% 29.60 in 2 mi WNW 9.2 mph - -   Haze
5:40 PM 93.2 °F 98.8 °F 69.8 °F 46% 29.59 in 3.7 mi WNW 9.2 mph 20.7 mph N/A   Mostly Cloudy
6:10 PM 93.2 °F 98.8 °F 69.8 °F 46% 29.62 in 3.7 mi WNW 9.2 mph - N/A   Mostly Cloudy
6:40 PM 91.4 °F 96.8 °F 69.8 °F 49% 29.62 in 3.7 mi West 11.5 mph - N/A   Mostly Cloudy
7:10 PM 89.6 °F 93.4 °F 68.0 °F 49% 29.65 in 3.7 mi West 10.4 mph - N/A   Mostly Cloudy
7:40 PM 87.8 °F 91.4 °F 68.0 °F 52% 29.65 in 3.7 mi West 10.4 mph - N/A   Mostly Cloudy
8:10 PM 87.8 °F 92.6 °F 69.8 °F 55% 29.65 in 3.7 mi West 8.1 mph - N/A   Mostly Cloudy
8:30 PM 88 °F - 67 °F 41% 29.67 in 2 mi West 10.4 mph - -   Partly Cloudy
8:40 PM 87.8 °F 92.6 °F 69.8 °F 55% 29.68 in 3.7 mi West 9.2 mph - N/A   Mostly Cloudy
9:10 PM 87.8 °F 92.6 °F 69.8 °F 55% 29.71 in 3.7 mi West 8.1 mph - N/A   Mostly Cloudy
9:40 PM 87.8 °F 92.6 °F 69.8 °F 55% 29.71 in 3.7 mi West 5.8 mph - N/A   Mostly Cloudy
10:10 PM 87.8 °F 92.6 °F 69.8 °F 55% 29.71 in 3.7 mi West 3.5 mph - N/A   Mostly Cloudy
10:40 PM 86.0 °F 90.4 °F 69.8 °F 58% 29.71 in 3.7 mi West 8.1 mph - N/A   Mostly Cloudy
11:10 PM 86.0 °F 90.4 °F 69.8 °F 58% 29.71 in 3.7 mi West 11.5 mph - N/A   Mostly Cloudy
11:40 PM 84.2 °F 87.3 °F 68.0 °F 58% 29.71 in 3.7 mi West 9.2 mph - N/A   Mostly Cloudy